Regional Weather Roundup
Issued by NWS Albany, NY

Home | Current Version | Previous Version | Text Only | Print | Product List | Glossary On
Versions: 1 2 3 4 5 6 7 8 9 10 11 12 13 14 15 16 17 18 19 20 21 22 23 24 25 26 27 28 29 30 31 32 33 34 35 36 37 38 39 40 41 42 43 44 45 46 47 48 49 50
000
ASUS41 KALY 281410
RWRALY

NEW YORK STATE HOURLY WEATHER ROUNDUP
NATIONAL WEATHER SERVICE ALBANY NY
900 AM EST SUN DEC 28 2014

NOTE: "FAIR" INDICATES FEW OR NO CLOUDS BELOW 12,000 FEET WITH NO
SIGNIFICANT WEATHER AND/OR NO OBSTRUCTIONS TO VISIBILITY.

NYZ032-033-038>043-046>054-057>066-NYZ062>081-281500-
EAST


CITY           SKY/WX    TMP DP  RH WIND       PRES   REMARKS
ALBANY         CLOUDY    45  40  82 SW6       29.86R
GLENS FALLS    CLOUDY    42  40  92 S8        29.82R
POUGHKEEPSIE   LGT RAIN  44  41  89 CALM      29.87R
NEWBURGH       CLOUDY    43  41  93 NW7       29.89R
MONTGOMERY     LGT RAIN  43  40  89 SW7       29.88R
WHITE PLAINS   LGT RAIN  43  40  89 SW5       29.88R FOG
ISLIP          LGT RAIN  45  41  86 SW8       29.89S FOG
NEW YORK CITY  LGT RAIN  45  40  82 S9        29.90F
CENTRAL PARK   LGT RAIN  46  41  82 CALM      29.92S
$$

NYZ005>009-017-018-044>046-055-056-281500-
CENTRAL


CITY           SKY/WX    TMP DP  RH WIND       PRES   REMARKS
FULTON         CLOUDY    39  31  72 W13G21    29.93R WCI  31
SYRACUSE       CLOUDY    40  36  86 W12       29.92R WCI  33
ROME           CLOUDY    39  37  92 W13G21    29.91R WCI  31
ELMIRA         CLOUDY    42  35  76 NW9       29.93R
BINGHAMTON     CLOUDY    40  38  93 NW12G17   29.89R WCI  33
MONTICELLO     CLOUDY    39  39 100 W7        29.87R WCI  34
$$

NYZ026>034-041>043-281500-
NORTH


CITY           SKY/WX    TMP DP  RH WIND       PRES   REMARKS
WATERTOWN      CLOUDY    38  28  67 W13G24    29.92R WCI  30
FORT DRUM      NOT AVBL
MASSENA        CLOUDY    40  29  64 W13       29.84R WCI  32
SARANAC LAKE   CLOUDY    36  34  92 W7        29.76R WCI  30
PLATTSBURGH    CLOUDY    44  34  67 VRB6      29.77R
$$

NYZ001>004-010>016-019>021-281500-
WEST


CITY           SKY/WX    TMP DP  RH WIND       PRES   REMARKS
NIAGARA FALLS  CLOUDY    35  27  72 NW16      29.99R WCI  25
BUFFALO        CLOUDY    36  29  75 NW9G20    29.99R WCI  29
DUNKIRK        CLOUDY    37  32  82 NW13      30.02R WCI  29
JAMESTOWN      CLOUDY    34  30  86 W5        29.98R WCI  30
WELLSVILLE     CLOUDY    34  31  88 NW8       29.93R WCI  27
ROCHESTER      LGT RAIN  38  31  76 NW15      29.96R WCI  29
PENN YAN       CLOUDY    40  33  76 W9G21     29.93R WCI  34
$$

             KEY
       WCI = WIND CHILL INDEX
       VSB = VISIBILITY
       HX  = HEAT INDEX
$$



USA.gov is the U.S. government's official web portal to all federal, state and local government web resources and services.